K0HYD Weather Reports


Display with metric or nautical units.
time (UTC)temp
F
wind
direction
speed
MPH
gust
MPH
rain 1hr
in
rain 24hr
in
rain mn
in
humidity
%
barometer
mb
20260901000345 98 198 4.0 7.0 0.00 0.00 0.00 31 1009.1
20260831234844 98 166 0.0 6.0 0.00 0.00 0.00 30 1009.1
20260831233343 100 131 5.0 6.0 0.00 0.00 0.00 29 1009.1
20260831231842 101 145 0.0 7.0 0.00 0.00 0.00 29 1009.0
20260831230341 101 188 1.0 10.0 0.00 0.00 0.00 28 1009.0
20260831224840 102 139 5.0 7.0 0.00 0.00 0.00 28 1009.1
20260831223340 102 137 0.0 8.0 0.00 0.00 0.00 28 1009.1
20260831221838 102 139 5.0 7.0 0.00 0.00 0.00 28 1009.2
20260831220338 102 179 5.0 7.0 0.00 0.00 0.00 27 1009.3
20260831214837 104 228 0.0 6.0 0.00 0.00 0.00 26 1009.4
20260831213336 103 179 0.0 6.0 0.00 0.00 0.00 24 1009.6
20260831211835 102 236 0.0 12.0 0.00 0.00 0.00 24 1009.8
20260831210334 103 160 2.0 6.0 0.00 0.00 0.00 25 1009.9
20260831204833 103 198 5.0 6.0 0.00 0.00 0.00 25 1010.0
20260831203332 103 224 5.0 12.0 0.00 0.00 0.00 25 1010.2
20260831201831 102 134 0.0 15.0 0.00 0.00 0.00 27 1010.2
20260831194829 102 159 2.0 13.0 0.00 0.00 0.00 28 1010.5
20260831191827 103 230 0.0 12.0 0.00 0.00 0.00 28 1010.6
20260831190326 102 235 0.0 11.0 0.00 0.00 0.00 31 1010.6
20260831184825 102 212 1.0 8.0 0.00 0.00 0.00 31 1010.8
20260831183324 102 129 5.0 8.0 0.00 0.00 0.00 31 1010.8
20260831180322 100 232 0.0 12.0 0.00 0.00 0.00 33 1011.2
20260831174821 99 259 0.0 10.0 0.00 0.00 0.00 34 1011.4
20260831173320 98 188 0.0 6.0 0.00 0.00 0.00 36 1011.6
20260831171819 98 132 0.0 6.0 0.00 0.00 0.00 37 1011.7
20260831170319 97 136 4.0 7.0 0.00 0.00 0.00 38 1012.0
20260831164818 96 239 0.0 6.0 0.00 0.00 0.00 38 1011.9
20260831163316 95 250 3.0 7.0 0.00 0.00 0.00 40 1012.0
20260831160315 93 205 0.0 6.0 0.00 0.00 0.00 41 1012.4
20260831154814 92 188 0.0 7.0 0.00 0.00 0.00 43 1012.4
20260831153313 91 184 0.0 5.0 0.00 0.00 0.00 44 1012.2
20260831151812 90 243 0.0 6.0 0.00 0.00 0.00 46 1012.3
20260831150311 88 225 0.0 4.0 0.00 0.00 0.00 49 1012.5
20260831143309 84 134 4.0 5.0 0.00 0.00 0.00 52 1012.6
20260831141808 83 230 0.0 1.0 0.00 0.00 0.00 54 1012.9
20260831140307 82 249 0.0 4.0 0.00 0.00 0.00 55 1012.7
20260831134806 80 160 0.0 4.0 0.00 0.00 0.00 57 1012.7
20260831133305 78 136 0.0 5.0 0.00 0.00 0.00 59 1012.6
20260831131804 77 186 0.0 1.0 0.00 0.00 0.00 61 1012.4
20260831130303 76 156 0.0 1.0 0.00 0.00 0.00 63 1012.1
20260831124802 75 153 0.0 1.0 0.00 0.00 0.00 64 1012.0
20260831121800 74 148 0.0 1.0 0.00 0.00 0.00 66 1011.6
20260831120259 73 134 0.0 0.0 0.00 0.00 0.00 67 1011.8
20260831114758 73 218 0.0 0.0 0.00 0.00 0.00 66 1011.8
20260831113257 74 218 0.0 0.0 0.00 0.00 0.00 66 1011.7
20260831110255 75 224 0.0 0.0 0.00 0.00 0.00 64 1011.6
20260831104755 75 215 0.0 0.0 0.00 0.00 0.00 63 1011.4
20260831103253 76 224 0.0 0.0 0.00 0.00 0.00 63 1011.3
20260831101752 77 156 0.0 0.0 0.00 0.00 0.00 61 1011.2
20260831100251 77 211 0.0 0.0 0.00 0.00 0.00 60 1011.1
20260831094750 78 203 0.0 0.0 0.00 0.00 0.00 59 1010.7
20260831091749 78 224 0.0 0.0 0.00 0.00 0.00 58 1010.6
20260831090248 78 204 0.0 0.0 0.00 0.00 0.00 58 1010.5
20260831084747 79 222 0.0 0.0 0.00 0.00 0.00 58 1010.4
20260831083246 79 218 0.0 0.0 0.00 0.00 0.00 57 1010.2
20260831081745 80 242 0.0 1.0 0.00 0.00 0.00 56 1010.1
20260831080244 80 203 0.0 1.0 0.00 0.00 0.00 55 1010.0
20260831074743 81 201 0.0 2.0 0.00 0.00 0.00 54 1010.0
20260831073242 81 140 0.0 1.0 0.00 0.00 0.00 54 1009.8
20260831071741 82 222 0.0 4.0 0.00 0.00 0.00 52 1010.0
20260831070240 83 145 4.0 4.0 0.00 0.00 0.00 52 1010.0
20260831064739 83 124 0.0 6.0 0.00 0.00 0.00 51 1010.0
20260831063238 84 224 0.0 4.0 0.00 0.00 0.00 50 1010.1
20260831061737 85 113 0.0 2.0 0.00 0.00 0.00 49 1010.1
20260831060236 86 264 0.0 6.0 0.00 0.00 0.00 48 1009.8
20260831053234 86 155 0.0 7.0 0.00 0.00 0.00 46 1009.1
20260831051733 87 169 0.0 6.0 0.00 0.00 0.00 46 1008.7
20260831050232 87 145 0.0 7.0 0.00 0.00 0.00 45 1008.6
20260831044731 87 166 1.0 6.0 0.00 0.00 0.00 45 1008.5
20260831043230 87 162 4.0 6.0 0.00 0.00 0.00 45 1008.5
20260831041729 88 181 0.0 6.0 0.00 0.00 0.00 44 1008.4
20260831040229 88 115 2.0 6.0 0.00 0.00 0.00 43 1008.4
20260831033227 89 188 2.0 6.0 0.00 0.00 0.00 42 1008.4
20260831031725 90 149 0.0 6.0 0.00 0.00 0.00 41 1008.4
20260831030225 90 195 0.0 6.0 0.00 0.00 0.00 40 1008.4
20260831023223 91 129 5.0 6.0 0.00 0.00 0.00 38 1008.1
20260831021722 92 85 3.0 6.0 0.00 0.00 0.00 37 1008.0
20260831014720 93 177 0.0 7.0 0.00 0.00 0.00 37 1007.4
20260831013219 94 149 0.0 6.0 0.00 0.00 0.00 37 1007.2
20260831011718 95 208 0.0 6.0 0.00 0.00 0.00 37 1007.1
20260831010217 96 241 0.0 12.0 0.00 0.00 0.00 36 1006.9
20260831003215 98 112 6.0 7.0 0.00 0.00 0.00 34 1006.8
20260831001714 99 218 0.0 5.0 0.00 0.00 0.00 33 1006.7